KB1WCR Weather Reports


time (UTC)temp
C
wind
direction
speed
KPH
gust
KPH
rain 1hr
cm
rain 24hr
cm
rain mn
cm
humidity
%
barometer
mb
20260901014805 12 339 0.0 0.0 0.00 0.00 0.00 99 1018.4
20260901014301 12 350 0.0 0.0 0.00 0.00 0.00 99 1018.3
20260901013756 12 315 0.0 0.0 0.00 0.00 0.00 99 1018.4
20260901013252 12 313 0.0 0.0 0.00 0.00 0.00 99 1018.3
20260901012742 12 322 0.0 0.0 0.00 0.00 0.00 98 1018.3
20260901012242 12 322 0.0 0.0 0.00 0.00 0.00 98 1018.1
20260901011737 12 322 0.0 0.0 0.00 0.00 0.00 98 1017.9
20260901011232 12 322 0.0 0.0 0.00 0.00 0.00 98 1018.3
20260901010726 13 323 0.0 0.0 0.00 0.00 0.00 97 1018.1
20260901010221 13 324 0.0 0.0 0.00 0.00 0.00 96 1018.4
20260901005714 13 326 0.0 0.0 0.00 0.00 0.00 96 1018.4
20260901005209 13 339 0.0 0.0 0.00 0.00 0.00 96 1018.2
20260901004709 13 311 0.0 0.0 0.00 0.00 0.00 95 1018.4
20260901004203 13 314 0.0 0.0 0.00 0.00 0.00 94 1018.2
20260901003658 14 315 0.0 0.0 0.00 0.00 0.00 93 1018.3
20260901003157 14 314 0.0 0.0 0.00 0.00 0.00 92 1018.5
20260901002651 15 310 0.0 0.0 0.00 0.00 0.00 91 1018.3
20260901002146 15 282 0.0 0.0 0.00 0.00 0.00 90 1018.2
20260901001642 15 304 0.0 0.0 0.00 0.00 0.00 90 1018.2
20260901001137 15 251 1.6 1.6 0.00 0.00 0.00 90 1018.2
20260901000632 15 316 0.0 0.0 0.00 0.00 0.00 92 1018.2
20260901000130 15 305 0.0 0.0 0.00 0.00 0.00 92 1017.9
20260831235621 15 311 0.0 0.0 0.00 0.00 0.00 90 1018.0
20260831235117 15 310 0.0 0.0 0.00 0.00 0.00 90 1018.2
20260831234616 16 286 0.0 0.0 0.00 0.00 0.00 88 1018.0
20260831234112 16 303 0.0 0.0 0.00 0.00 0.00 87 1018.1
20260831233607 16 6 0.0 0.0 0.00 0.00 0.00 88 1018.2
20260831233102 16 342 0.0 0.0 0.00 0.00 0.00 87 1018.1
20260831232557 16 331 0.0 0.0 0.00 0.00 0.00 85 1018.1
20260831232053 17 341 0.0 0.0 0.00 0.00 0.00 84 1018.1
20260831231549 17 286 0.0 0.0 0.00 0.00 0.00 82 1018.2
20260831231044 17 262 0.0 0.0 0.00 0.00 0.00 81 1018.4
20260831230540 17 325 0.0 0.0 0.00 0.00 0.00 80 1018.2
20260831230039 18 161 0.0 0.0 0.00 0.00 0.00 78 1018.4
20260831225535 18 114 3.2 3.2 0.00 0.00 0.00 76 1018.1
20260831225030 19 320 0.0 0.0 0.00 0.00 0.00 74 1018.0
20260831224525 19 298 0.0 0.0 0.00 0.00 0.00 72 1018.2
20260831224021 19 315 0.0 0.0 0.00 0.00 0.00 71 1018.1
20260831223515 20 45 0.0 1.6 0.00 0.00 0.00 69 1018.3
20260831223012 20 65 1.6 1.6 0.00 0.00 0.00 68 1018.2
20260831222508 20 332 1.6 3.2 0.00 0.00 0.00 68 1018.3
20260831222007 20 251 1.6 1.6 0.00 0.00 0.00 68 1018.1
20260831221504 20 329 1.6 1.6 0.00 0.00 0.00 67 1018.3
20260831220958 21 88 0.0 0.0 0.00 0.00 0.00 66 1018.2
20260831220454 21 81 1.6 1.6 0.00 0.00 0.00 67 1018.2
20260831215949 21 315 0.0 1.6 0.00 0.00 0.00 64 1018.2
20260831215444 21 309 0.0 0.0 0.00 0.00 0.00 65 1018.0
20260831214940 21 9 3.2 4.8 0.00 0.00 0.00 65 1018.2
20260831214437 22 198 3.2 4.8 0.00 0.00 0.00 63 1018.2
20260831213933 22 261 3.2 4.8 0.00 0.00 0.00 61 1018.4
20260831213429 22 292 1.6 1.6 0.00 0.00 0.00 62 1018.2
20260831212929 22 341 1.6 1.6 0.00 0.00 0.00 63 1018.2
20260831212426 22 312 1.6 3.2 0.00 0.00 0.00 60 1018.1
20260831211925 23 204 6.4 6.4 0.00 0.00 0.00 58 1018.1
20260831211420 23 300 0.0 0.0 0.00 0.00 0.00 58 1018.3
20260831210914 23 336 1.6 1.6 0.00 0.00 0.00 56 1018.2
20260831210410 23 300 0.0 1.6 0.00 0.00 0.00 59 1018.3
20260831205905 22 161 3.2 3.2 0.00 0.00 0.00 59 1018.2
20260831205401 23 297 4.8 6.4 0.00 0.00 0.00 59 1018.3
20260831204855 23 45 1.6 1.6 0.00 0.00 0.00 59 1018.2
20260831204354 23 189 3.2 4.8 0.00 0.00 0.00 58 1018.4
20260831203854 23 271 0.0 1.6 0.00 0.00 0.00 59 1018.4
20260831203349 23 254 1.6 3.2 0.00 0.00 0.00 59 1018.6
20260831202847 23 324 0.0 0.0 0.00 0.00 0.00 63 1018.3
20260831202342 22 139 4.8 4.8 0.00 0.00 0.00 61 1018.4
20260831201836 23 306 3.2 4.8 0.00 0.00 0.00 60 1018.4
20260831201335 23 296 3.2 3.2 0.00 0.00 0.00 59 1018.5
20260831200831 23 213 3.2 4.8 0.00 0.00 0.00 59 1018.3
20260831200326 23 146 1.6 1.6 0.00 0.00 0.00 57 1018.2
20260831195821 23 243 1.6 1.6 0.00 0.00 0.00 55 1018.6
20260831195317 23 198 1.6 3.2 0.00 0.00 0.00 55 1018.4
20260831194813 23 187 3.2 3.2 0.00 0.00 0.00 52 1018.5
20260831194308 23 292 1.6 3.2 0.00 0.00 0.00 53 1018.5
20260831193806 24 172 4.8 9.7 0.00 0.00 0.00 51 1018.7
20260831193302 24 227 4.8 6.4 0.00 0.00 0.00 50 1018.7
20260831192756 23 272 4.8 4.8 0.00 0.00 0.00 50 1018.6
20260831192252 24 177 3.2 4.8 0.00 0.00 0.00 50 1018.5
20260831191747 25 270 0.0 0.0 0.00 0.00 0.00 50 1018.7
20260831191244 26 292 0.0 0.0 0.00 0.00 0.00 42 1018.5
20260831190738 25 207 3.2 3.2 0.00 0.00 0.00 42 1018.5
20260831190233 25 84 3.2 4.8 0.00 0.00 0.00 42 1018.5
20260831185733 26 70 1.6 1.6 0.00 0.00 0.00 41 1018.6
20260831185229 26 256 0.0 0.0 0.00 0.00 0.00 39 1018.8
20260831184727 25 292 1.6 3.2 0.00 0.00 0.00 40 1018.7
20260831184224 25 256 3.2 4.8 0.00 0.00 0.00 41 1018.7
20260831183723 25 268 3.2 4.8 0.00 0.00 0.00 39 1018.9
20260831183218 25 325 4.8 4.8 0.00 0.00 0.00 38 1019.0
20260831182717 25 325 0.0 1.6 0.00 0.00 0.00 39 1018.8
20260831182213 25 203 1.6 1.6 0.00 0.00 0.00 38 1018.9
20260831181712 25 29 1.6 1.6 0.00 0.00 0.00 37 1019.0
20260831181208 25 299 1.6 3.2 0.00 0.00 0.00 39 1018.9
20260831180703 25 259 0.0 0.0 0.00 0.00 0.00 46 1019.1
20260831180158 24 47 1.6 3.2 0.00 0.00 0.00 44 1019.1
20260831175657 24 189 1.6 1.6 0.00 0.00 0.00 44 1019.0
20260831175154 24 254 1.6 1.6 0.00 0.00 0.00 43 1019.2
20260831174654 25 302 1.6 3.2 0.00 0.00 0.00 46 1019.4
20260831174149 24 316 1.6 1.6 0.00 0.00 0.00 44 1019.3
20260831173648 24 338 3.2 3.2 0.00 0.00 0.00 45 1019.4
20260831173144 23 301 1.6 1.6 0.00 0.00 0.00 51 1019.4
20260831172643 23 30 3.2 4.8 0.00 0.00 0.00 46 1019.3
20260831172138 23 45 4.8 4.8 0.00 0.00 0.00 45 1019.4
20260831171633 24 341 4.8 4.8 0.00 0.00 0.00 49 1019.5
20260831171131 24 59 3.2 4.8 0.00 0.00 0.00 46 1019.5
20260831170627 24 294 3.2 4.8 0.00 0.00 0.00 46 1019.7
20260831170124 23 304 0.0 0.0 0.00 0.00 0.00 50 1019.6
20260831165619 23 254 1.6 1.6 0.00 0.00 0.00 48 1019.8
20260831165116 23 232 3.2 3.2 0.00 0.00 0.00 46 1019.9
20260831164611 23 272 0.0 0.0 0.00 0.00 0.00 46 1019.7
20260831164107 23 264 0.0 1.6 0.00 0.00 0.00 47 1019.8
20260831163601 23 237 3.2 3.2 0.00 0.00 0.00 47 1020.0
20260831163057 23 298 3.2 4.8 0.00 0.00 0.00 46 1020.1
20260831162556 22 25 0.0 1.6 0.00 0.00 0.00 47 1020.1
20260831162054 22 229 3.2 3.2 0.00 0.00 0.00 47 1020.2
20260831161550 23 263 4.8 6.4 0.00 0.00 0.00 47 1020.2
20260831161046 22 300 0.0 1.6 0.00 0.00 0.00 52 1020.0
20260831160539 23 304 4.8 6.4 0.00 0.00 0.00 46 1020.0
20260831160035 22 5 1.6 3.2 0.00 0.00 0.00 50 1020.1
20260831155530 22 233 3.2 4.8 0.00 0.00 0.00 50 1020.1
20260831155024 22 323 3.2 3.2 0.00 0.00 0.00 52 1020.2
20260831154521 21 269 3.2 4.8 0.00 0.00 0.00 54 1020.2
20260831154020 22 42 3.2 4.8 0.00 0.00 0.00 51 1020.4
20260831153521 21 87 4.8 4.8 0.00 0.00 0.00 52 1020.3
20260831153018 22 49 4.8 4.8 0.00 0.00 0.00 50 1020.5
20260831152513 21 348 3.2 4.8 0.00 0.00 0.00 55 1020.5
20260831152008 21 349 4.8 9.7 0.00 0.00 0.00 54 1020.4
20260831151508 21 334 0.0 0.0 0.00 0.00 0.00 53 1020.6
20260831151002 21 345 1.6 3.2 0.00 0.00 0.00 54 1020.7
20260831150458 21 351 3.2 3.2 0.00 0.00 0.00 56 1020.8
20260831145958 21 79 3.2 4.8 0.00 0.00 0.00 52 1020.7
20260831145453 21 353 1.6 1.6 0.00 0.00 0.00 54 1020.6
20260831144949 21 328 1.6 3.2 0.00 0.00 0.00 61 1020.8
20260831144444 21 267 3.2 3.2 0.00 0.00 0.00 58 1021.0
20260831143940 21 331 0.0 0.0 0.00 0.00 0.00 58 1021.0
20260831143434 20 216 3.2 3.2 0.00 0.00 0.00 58 1020.9
20260831142930 20 256 0.0 1.6 0.00 0.00 0.00 60 1021.0
20260831142426 20 57 4.8 6.4 0.00 0.00 0.00 57 1020.8
20260831141920 20 282 3.2 3.2 0.00 0.00 0.00 57 1020.8
20260831141414 20 71 3.2 4.8 0.00 0.00 0.00 55 1020.7
20260831140909 20 22 3.2 4.8 0.00 0.00 0.00 57 1021.0
20260831140404 20 334 1.6 3.2 0.00 0.00 0.00 58 1021.0
20260831135902 20 245 4.8 4.8 0.00 0.00 0.00 57 1020.9
20260831135356 20 322 3.2 4.8 0.00 0.00 0.00 60 1021.1
20260831134852 20 64 6.4 6.4 0.00 0.00 0.00 58 1021.0
20260831134349 20 7 1.6 1.6 0.00 0.00 0.00 60 1021.2
20260831133848 20 41 4.8 4.8 0.00 0.00 0.00 59 1020.9
20260831133342 19 352 3.2 3.2 0.00 0.00 0.00 64 1020.8
20260831132838 20 266 3.2 4.8 0.00 0.00 0.00 62 1020.9
20260831132332 19 30 0.0 1.6 0.00 0.00 0.00 64 1020.6
20260831131827 19 276 3.2 4.8 0.00 0.00 0.00 63 1020.7
20260831131323 19 290 0.0 1.6 0.00 0.00 0.00 66 1020.7
20260831130818 18 292 3.2 4.8 0.00 0.00 0.00 68 1020.6
20260831130313 18 10 1.6 3.2 0.00 0.00 0.00 69 1020.5
20260831125812 18 27 1.6 3.2 0.00 0.00 0.00 69 1020.7
20260831125308 18 305 0.0 1.6 0.00 0.00 0.00 71 1020.8
20260831124808 18 25 3.2 3.2 0.00 0.00 0.00 72 1020.6
20260831124304 18 63 3.2 3.2 0.00 0.00 0.00 72 1020.4
20260831123804 18 52 1.6 3.2 0.00 0.00 0.00 74 1020.5
20260831123302 18 27 1.6 3.2 0.00 0.00 0.00 74 1020.4
20260831122757 17 3 4.8 6.4 0.00 0.00 0.00 76 1020.4
20260831122253 17 316 1.6 3.2 0.00 0.00 0.00 79 1020.2
20260831121753 17 40 1.6 3.2 0.00 0.00 0.00 77 1020.5
20260831121249 17 343 1.6 1.6 0.00 0.00 0.00 80 1020.3
20260831120744 16 345 1.6 3.2 0.00 0.00 0.00 83 1020.3
20260831120239 17 340 1.6 1.6 0.00 0.00 0.00 83 1020.4
20260831115734 16 317 0.0 0.0 0.00 0.00 0.00 84 1020.3
20260831115230 15 332 0.0 0.0 0.00 0.00 0.00 91 1020.6
20260831114730 15 296 0.0 0.0 0.00 0.00 0.00 91 1020.5
20260831114229 14 333 0.0 0.0 0.00 0.00 0.00 93 1020.6
20260831113725 13 329 0.0 0.0 0.00 0.00 0.00 97 1020.4
20260831113219 12 327 0.0 0.0 0.00 0.00 0.00 99 1020.3
20260831112718 12 303 0.0 0.0 0.00 0.00 0.00 99 1020.5
20260831112214 11 309 0.0 0.0 0.00 0.00 0.00 99 1020.5
20260831111709 11 331 0.0 0.0 0.00 0.00 0.00 99 1020.2
20260831111206 11 324 0.0 0.0 0.00 0.00 0.00 99 1020.2
20260831110701 11 321 0.0 0.0 0.00 0.00 0.00 99 1020.4
20260831110155 11 313 0.0 0.0 0.00 0.00 0.00 99 1020.2
20260831105649 10 318 0.0 0.0 0.00 0.00 0.00 99 1020.2
20260831105144 10 335 0.0 0.0 0.00 0.00 0.00 99 1020.0
20260831104639 10 318 0.0 0.0 0.00 0.00 0.00 99 1020.1
20260831104136 10 305 0.0 0.0 0.00 0.00 0.00 99 1019.7
20260831103631 10 306 0.0 0.0 0.00 0.00 0.00 99 1019.8
20260831103127 10 303 0.0 0.0 0.00 0.00 0.00 99 1019.8
20260831102627 10 347 0.0 0.0 0.00 0.00 0.00 99 1019.6
20260831102121 10 342 0.0 0.0 0.00 0.00 0.00 99 1019.6
20260831101621 10 315 0.0 0.0 0.00 0.00 0.00 99 1019.7
20260831101118 11 347 0.0 1.6 0.00 0.00 0.00 99 1019.7
20260831100613 11 323 0.0 0.0 0.00 0.00 0.00 99 1019.6
20260831100109 11 310 0.0 0.0 0.00 0.00 0.00 98 1019.5
20260831095607 12 312 0.0 0.0 0.00 0.00 0.00 98 1019.6
20260831095102 12 315 0.0 0.0 0.00 0.00 0.00 97 1019.5
20260831094558 12 317 0.0 0.0 0.00 0.00 0.00 97 1019.4
20260831094054 12 318 0.0 1.6 0.00 0.00 0.00 97 1019.4
20260831093549 12 298 0.0 1.6 0.00 0.00 0.00 97 1019.4
20260831093045 12 244 1.6 1.6 0.00 0.00 0.00 97 1019.3
20260831092541 12 258 1.6 1.6 0.00 0.00 0.00 98 1019.2
20260831092036 12 277 1.6 3.2 0.00 0.00 0.00 99 1019.2
20260831091531 12 308 0.0 0.0 0.00 0.00 0.00 99 1019.2
20260831091026 11 313 0.0 0.0 0.00 0.00 0.00 99 1019.2
20260831090521 11 305 0.0 0.0 0.00 0.00 0.00 99 1019.1
20260831090018 11 310 0.0 0.0 0.00 0.00 0.00 99 1019.0
20260831085512 11 308 0.0 0.0 0.00 0.00 0.00 99 1019.0
20260831085007 11 327 0.0 0.0 0.00 0.00 0.00 99 1019.0
20260831084503 11 327 0.0 0.0 0.00 0.00 0.00 99 1018.9
20260831083959 11 330 0.0 0.0 0.00 0.00 0.00 99 1019.0
20260831083454 12 337 0.0 0.0 0.00 0.00 0.00 99 1018.8
20260831082953 12 344 0.0 0.0 0.00 0.00 0.00 98 1018.8
20260831082448 12 332 0.0 0.0 0.00 0.00 0.00 97 1018.8
20260831081943 12 349 1.6 1.6 0.00 0.00 0.00 97 1018.8
20260831081439 13 3 0.0 0.0 0.00 0.00 0.00 95 1018.6
20260831080934 13 310 0.0 0.0 0.00 0.00 0.00 94 1018.6
20260831080429 13 307 0.0 0.0 0.00 0.00 0.00 94 1018.6
20260831075925 13 304 0.0 0.0 0.00 0.00 0.00 95 1018.4
20260831075420 13 308 0.0 0.0 0.00 0.00 0.00 95 1018.2
20260831074916 13 268 0.0 0.0 0.00 0.00 0.00 95 1018.5
20260831074415 13 307 0.0 0.0 0.00 0.00 0.00 95 1018.4
20260831073909 13 11 0.0 0.0 0.00 0.00 0.00 95 1018.5
20260831073409 13 305 0.0 0.0 0.00 0.00 0.00 95 1018.3
20260831072903 13 302 0.0 0.0 0.00 0.00 0.00 95 1018.4
20260831072359 13 322 0.0 1.6 0.00 0.00 0.00 95 1018.4
20260831071855 13 291 0.0 1.6 0.00 0.00 0.00 94 1018.3
20260831071354 14 0 0.0 0.0 0.00 0.00 0.00 94 1018.4
20260831070849 14 303 0.0 0.0 0.00 0.00 0.00 93 1018.4
20260831070348 15 338 1.6 1.6 0.00 0.00 0.00 93 1018.4
20260831065848 15 305 0.0 0.0 0.00 0.00 0.00 93 1018.3
20260831065345 15 303 0.0 0.0 0.00 0.00 0.00 94 1018.2
20260831064841 14 282 1.6 3.2 0.00 0.00 0.00 94 1018.2
20260831064336 14 12 0.0 0.0 0.00 0.00 0.00 94 1018.4
20260831063832 15 313 0.0 0.0 0.00 0.00 0.00 94 1018.2
20260831063327 15 300 0.0 0.0 0.00 0.00 0.00 93 1018.3
20260831062827 15 294 1.6 1.6 0.00 0.00 0.00 93 1018.2
20260831062322 15 292 0.0 0.0 0.00 0.00 0.00 94 1018.1
20260831061820 15 285 1.6 3.2 0.00 0.00 0.00 95 1018.1
20260831061315 14 299 0.0 0.0 0.00 0.00 0.00 96 1018.2
20260831060811 14 307 0.0 0.0 0.00 0.00 0.00 97 1018.0
20260831060310 14 320 1.6 3.2 0.00 0.00 0.00 98 1017.9
20260831055810 14 259 1.6 1.6 0.00 0.00 0.00 98 1017.8
20260831055306 14 291 0.0 1.6 0.00 0.00 0.00 99 1017.8
20260831054801 13 302 0.0 1.6 0.00 0.00 0.00 99 1017.8
20260831054255 13 338 0.0 0.0 0.00 0.00 0.00 99 1017.9
20260831053754 13 301 0.0 0.0 0.00 0.00 0.00 99 1017.5
20260831053253 13 283 0.0 0.0 0.00 0.00 0.00 99 1017.8
20260831052748 13 298 0.0 0.0 0.00 0.00 0.00 99 1017.6
20260831052247 13 312 0.0 0.0 0.00 0.00 0.00 99 1017.7
20260831051745 13 291 0.0 0.0 0.00 0.00 0.00 99 1017.7
20260831051244 13 291 0.0 0.0 0.00 0.00 0.00 99 1017.5
20260831050739 13 310 0.0 0.0 0.00 0.00 0.00 99 1017.5
20260831050238 13 312 0.0 0.0 0.00 0.00 0.00 99 1017.4
20260831045732 13 307 0.0 0.0 0.00 0.00 0.00 99 1017.4
20260831045227 14 313 0.0 0.0 0.00 0.00 0.00 99 1017.4
20260831044722 14 302 0.0 0.0 0.00 0.00 0.00 98 1017.3
20260831044217 14 304 0.0 0.0 0.00 0.00 0.00 97 1017.3
20260831043713 15 312 0.0 0.0 0.00 0.00 0.00 96 1017.2
20260831043208 15 318 0.0 0.0 0.00 0.00 0.00 96 1017.2
20260831042707 15 292 0.0 0.0 0.00 0.00 0.00 96 1017.2
20260831042202 15 310 0.0 0.0 0.00 0.00 0.00 95 1017.3
20260831041657 15 310 0.0 0.0 0.00 0.00 0.00 94 1017.3
20260831041156 15 279 0.0 0.0 0.00 0.00 0.00 94 1017.2
20260831040652 16 298 0.0 0.0 0.00 0.00 0.00 94 1017.3
20260831040150 16 287 0.0 0.0 0.00 0.00 0.00 93 1017.3
20260831035649 16 265 0.0 0.0 0.00 0.00 0.00 92 1017.3
20260831035144 16 333 4.8 4.8 0.00 0.00 0.00 92 1017.2
20260831034642 16 299 1.6 1.6 0.00 0.00 0.00 91 1017.3
20260831034138 16 290 0.0 1.6 0.00 0.00 0.00 90 1017.5
20260831033634 17 297 1.6 1.6 0.00 0.00 0.00 89 1017.2
20260831033129 17 279 0.0 0.0 0.00 0.00 0.00 89 1017.1
20260831032629 17 313 0.0 0.0 0.00 0.00 0.00 89 1017.1
20260831032124 17 300 0.0 0.0 0.00 0.00 0.00 88 1017.0
20260831031619 17 308 0.0 0.0 0.00 0.00 0.00 88 1016.9
20260831031118 17 299 0.0 0.0 0.00 0.00 0.00 87 1017.0
20260831030617 17 298 0.0 0.0 0.00 0.00 0.00 87 1017.3
20260831030116 17 316 0.0 0.0 0.00 0.00 0.00 87 1017.4
20260831025615 17 307 0.0 0.0 0.00 0.00 0.00 86 1017.2
20260831025110 17 290 0.0 0.0 0.00 0.00 0.00 86 1017.3
20260831024606 17 311 1.6 3.2 0.00 0.00 0.00 87 1017.4
20260831024105 17 289 1.6 1.6 0.00 0.00 0.00 86 1017.5
20260831023603 17 356 1.6 3.2 0.00 0.00 0.00 85 1017.7
20260831023102 17 309 3.2 4.8 0.00 0.00 0.00 85 1017.6
20260831022557 17 356 3.2 4.8 0.00 0.00 0.00 84 1017.5
20260831022052 18 65 6.4 9.7 0.00 0.00 0.00 83 1017.4
20260831021551 18 38 4.8 6.4 0.00 0.00 0.00 81 1017.7
20260831021047 18 8 1.6 1.6 0.00 0.00 0.00 79 1017.3
20260831020542 19 278 3.2 4.8 0.00 0.00 0.00 76 1017.1
20260831020037 20 305 11.3 14.5 0.00 0.00 0.00 75 1017.2
20260831015533 20 23 6.4 11.3 0.00 0.00 0.00 75 1016.9
20260831015027 20 288 1.6 3.2 0.00 0.00 0.00 78 1016.9